This is the latest recevied weather packets stored in our database for station/object YO6SAY-10. If no packets are shown the sender has not sent any weather packets the latest 10 day(s).
| Time | Temp. | Humidity | Pressure | Rain* | Wind** | Luminosity | Snow |
|---|---|---|---|---|---|---|---|
| 1777928467 | 15° C | 50% | 949.3 hPa | - | - | - | - |
| 1777927567 | 15° C | 50% | 949.3 hPa | - | - | - | - |
| 1777926667 | 15° C | 50% | 949.3 hPa | - | - | - | - |
| 1777925767 | 15° C | 50% | 949.2 hPa | - | - | - | - |
| 1777924867 | 15° C | 50% | 949.2 hPa | - | - | - | - |
| 1777923967 | 15.56° C | 50% | 949.1 hPa | - | - | - | - |
| 1777923067 | 15.56° C | 49% | 949.1 hPa | - | - | - | - |
| 1777922166 | 15.56° C | 49% | 949.1 hPa | - | - | - | - |
| 1777921266 | 15.56° C | 49% | 949.1 hPa | - | - | - | - |
| 1777920366 | 15.56° C | 48% | 949 hPa | - | - | - | - |
| 1777919466 | 15.56° C | 48% | 949 hPa | - | - | - | - |
| 1777918566 | 15.56° C | 47% | 948.8 hPa | - | - | - | - |
| 1777917666 | 16.11° C | 47% | 948.7 hPa | - | - | - | - |
| 1777916765 | 16.67° C | 47% | 948.5 hPa | - | - | - | - |
| 1777915865 | 17.22° C | 46% | 948.5 hPa | - | - | - | - |
| 1777914965 | 17.78° C | 46% | 948.5 hPa | - | - | - | - |
| 1777914065 | 18.89° C | 45% | 948.5 hPa | - | - | - | - |
| 1777913165 | 20.56° C | 44% | 948.2 hPa | - | - | - | - |
| 1777912265 | 22.22° C | 42% | 948.1 hPa | - | - | - | - |
| 1777911364 | 21.11° C | 42% | 948.1 hPa | - | - | - | - |
| 1777910464 | 19.44° C | 43% | 948 hPa | - | - | - | - |
| 1777909564 | 19.44° C | 44% | 948 hPa | - | - | - | - |
| 1777908664 | 20° C | 43% | 948 hPa | - | - | - | - |
| 1777907764 | 21.67° C | 41% | 948.1 hPa | - | - | - | - |
| 1777906864 | 20.56° C | 42% | 948 hPa | - | - | - | - |
* Rain since midnight (hover to see other rain measurements)
** Current wind speed in m/s (hover to see current wind gust speed)